Location: Newark
(48.1500°N, 2.9667°W)
Time: 15:24:23
(UTC+00:00)

Altair - Pass Details

Date: 31 January 2020
Orbit: 1502 x 1682 km, 47.2° (Epoch: 25 February)

Event Time Altitude Azimuth Distance (km) Brightness Sun altitude
Rises 11:26:31 0° 281° (W) 4,919 9.9 23.1°
Reaches altitude 10° 11:29:41 10° 280° (W) 3,940 9.5 23.2°
Maximum altitude 11:39:49 76° 198° (SSW) 1,725 8.4 23.6°
Drops below altitude 10° 11:49:52 10° 115° (ESE) 3,907 10.2 23.9°
Sets 11:52:59 0° 114° (ESE) 4,876 10.6 24.0°
